Date,TemperatureHighF,TemperatureAvgF,TemperatureLowF,DewpointHighF,DewpointAvgF,DewpointLowF,HumidityHigh,HumidityAvg,HumidityLow,PressureMaxIn,PressureMinIn,WindSpeedMaxMPH,WindSpeedAvgMPH,GustSpeedMaxMPH,PrecipitationSumIn
2012-9-5,84,80,73,74,71,63,83,73,65,30.02,29.95,23,4,32,0.00
2012-9-6,86,82,78,75,71,-100,81,72,56,30.05,29.97,13,4,18,0.00
2012-9-7,87,83,80,75,73,72,81,72,63,30.02,29.93,11,5,18,0.00
2012-9-8,86,84,80,75,72,70,76,70,62,29.99,29.89,10,6,28,0.00
2012-9-9,89,84,79,74,70,64,78,64,44,29.99,29.91,22,14,30,0.00
2012-9-10,87,83,79,75,72,64,86,72,47,30.01,29.94,19,11,30,0.00
2012-9-11,89,83,79,76,74,72,83,74,61,30.07,29.98,21,8,33,0.00
2012-9-12,87,83,79,75,71,68,85,68,57,30.07,29.98,33,14,43,0.00
2012-9-13,83,80,74,74,72,70,92,78,69,30.08,29.97,35,13,43,0.00
2012-9-16,82,81,80,74,72,69,80,73,67,30.02,29.97,15,9,20,0.00
2012-9-17,83,80,74,75,72,68,87,77,66,30.03,29.93,20,6,27,0.00
2012-9-18,87,82,75,77,74,70,86,77,59,30.01,29.90,17,7,30,0.00
2012-9-19,88,82,78,76,73,70,85,76,61,30.06,29.93,12,5,16,0.00
2012-9-20,87,83,80,76,74,72,83,75,66,30.04,29.94,12,5,19,0.00
2012-9-21,83,80,74,76,72,67,90,77,69,29.99,29.91,17,7,28,0.00
2012-9-22,81,78,74,75,70,-100,91,83,77,30.03,29.92,17,6,26,0.00
2012-9-23,82,78,76,75,58,-100,90,76,75,30.06,29.99,12,4,17,0.00
2012-9-24,85,80,76,74,72,70,88,77,66,30.06,29.96,13,6,18,0.00
2012-9-25,86,81,77,74,71,68,81,72,64,30.07,29.98,14,7,18,0.00
2012-9-26,85,82,80,75,72,69,80,73,68,30.09,30.01,16,8,21,0.00
2012-9-27,87,83,81,75,74,72,81,74,64,30.09,29.98,18,5,22,0.00
2012-9-28,83,82,81,74,62,-100,76,69,71,30.03,29.95,18,6,21,0.00
2012-9-29,89,83,79,75,73,72,83,73,59,29.98,29.86,12,4,18,0.00
2012-9-30,86,83,79,75,73,71,84,74,63,29.92,29.80,7,4,14,0.00
2012-10-1,83,79,76,75,71,-100,94,83,73,29.89,29.80,14,7,31,0.00
2012-10-2,83,78,73,76,73,70,94,84,75,30.07,29.87,30,10,40,0.00
2012-10-3,87,83,78,78,75,72,87,78,68,30.17,30.04,13,5,19,0.00
2012-10-4,87,83,81,76,75,73,84,78,68,30.16,30.06,19,8,24,0.00
2012-10-5,85,82,81,76,74,72,81,75,67,30.10,29.94,17,9,19,0.00
2012-10-6,86,82,80,75,73,69,81,73,65,29.99,29.84,12,6,22,0.00
2012-10-7,84,80,76,74,73,66,87,77,67,29.98,29.87,17,7,24,0.00
2012-10-8,85,81,74,76,74,67,90,78,68,30.02,29.92,22,6,31,0.00
2012-10-9,86,82,78,76,74,72,89,78,65,30.03,29.95,12,4,15,0.00
2012-10-10,85,82,79,76,73,69,85,76,68,30.06,29.98,9,4,16,0.00
2012-10-11,83,80,76,70,67,65,77,65,56,30.11,30.03,10,6,22,0.00
2012-10-12,83,80,78,68,65,63,69,61,53,30.11,30.03,9,7,26,0.00
2012-10-13,81,79,75,71,67,64,84,66,56,30.09,30.01,26,11,45,0.00
2012-10-14,82,81,80,74,73,66,81,77,62,30.06,29.93,22,10,36,0.00
2012-10-15,86,82,78,74,72,70,83,73,62,29.94,29.79,24,8,30,0.00
2012-10-16,86,80,75,73,70,68,86,73,58,29.85,29.78,17,8,21,0.00
2012-10-17,84,80,71,73,70,68,92,73,66,29.90,29.81,21,5,32,0.00
2012-10-18,85,81,76,76,73,69,84,76,64,29.89,29.81,15,6,21,0.00
2012-10-19,84,80,76,76,73,69,90,80,67,29.91,29.82,10,5,16,0.00
2012-10-20,84,80,76,74,71,66,88,75,65,29.94,29.85,15,6,20,0.00
2012-10-21,83,79,75,71,65,60,82,63,51,30.01,29.89,13,6,23,0.00
2012-10-22,81,79,77,68,64,61,70,60,51,30.02,29.95,31,12,42,0.00
2012-10-23,83,79,76,71,66,61,82,66,56,29.98,29.91,29,16,40,0.00
2012-10-24,82,79,75,72,70,66,86,73,61,29.96,29.83,39,18,52,0.00
2012-10-25,80,78,73,72,69,62,88,76,61,29.85,29.64,37,16,74,0.00
2012-10-26,80,74,69,70,67,64,94,80,59,29.64,29.45,34,22,67,0.00
2012-10-27,80,73,68,66,62,56,85,68,46,29.69,29.49,36,26,58,0.00
2012-10-28,79,72,68,66,61,55,89,70,49,29.78,29.67,26,19,39,0.00
2012-10-29,70,64,59,57,50,41,77,60,38,29.86,29.75,29,19,38,0.00
2012-10-30,70,63,56,52,47,42,76,58,43,30.00,29.84,25,15,36,0.00
2012-10-31,72,66,61,56,53,51,79,63,50,30.07,29.98,14,8,21,0.00
2012-11-1,78,70,63,63,58,55,85,67,49,30.08,29.97,16,8,20,0.00
2012-11-2,80,72,67,66,58,47,92,66,34,30.10,30.01,15,9,19,0.00
2012-11-3,80,73,65,61,54,49,67,52,38,30.14,30.05,22,8,26,0.00
2012-11-4,78,75,70,65,62,60,71,64,54,30.11,30.01,12,6,14,0.00
2012-11-5,78,74,69,65,58,51,78,59,43,30.03,29.93,12,7,14,0.00
2012-11-6,80,74,71,65,56,-100,81,57,38,29.95,29.83,21,11,31,0.00
2012-11-7,71,66,60,65,56,50,87,70,57,29.98,29.84,24,16,33,0.00
2012-11-8,67,61,57,52,45,35,76,57,35,30.11,29.97,22,14,34,0.00
2012-11-9,74,67,58,56,53,48,82,63,43,30.20,30.09,24,12,32,0.00
2012-11-10,74,72,69,59,54,50,62,55,49,30.25,30.16,27,14,40,0.00
2012-11-11,76,74,72,65,59,52,75,58,44,30.23,30.16,38,22,46,0.00
2012-11-12,77,75,69,68,65,63,94,73,66,30.19,30.11,36,20,43,0.00
2012-11-13,79,76,74,66,65,63,74,68,60,30.14,30.05,24,10,30,0.00
2012-11-14,79,76,75,67,63,-100,72,66,60,30.12,30.04,15,9,26,0.00
2012-11-15,80,76,69,66,63,60,86,66,54,30.10,30.03,13,6,23,0.00
2012-11-16,77,70,64,67,65,62,95,83,68,30.97,30.02,18,9,31,0.00
2012-11-17,78,73,67,66,64,62,91,75,61,30.10,30.01,18,7,25,0.00
2012-11-18,78,73,68,67,65,63,88,76,65,30.11,30.01,16,8,27,0.00
2012-11-19,72,65,61,64,59,54,89,79,60,30.11,30.01,20,13,28,0.00
2012-11-20,72,64,59,64,60,57,97,88,75,30.03,29.92,19,11,25,0.00
2012-11-21,74,66,59,60,57,52,94,75,52,30.02,29.92,26,16,38,0.00
2012-11-22,73,64,58,54,50,-100,76,63,46,30.10,29.99,28,18,39,0.00
2012-11-23,77,65,56,59,54,50,82,68,50,30.13,30.04,23,14,30,0.00
2012-11-24,72,65,57,56,50,45,80,59,39,30.11,30.01,18,11,24,0.00
2012-11-25,76,67,57,57,54,50,87,65,41,30.13,30.04,17,8,21,0.00
2012-11-26,78,73,69,61,58,54,66,60,50,30.20,30.10,13,6,19,0.00
2012-11-27,80,75,73,65,63,59,73,66,54,30.19,30.09,12,6,19,0.00
2012-11-28,78,72,67,65,64,61,91,75,57,30.19,30.09,18,10,34,0.00
2012-11-29,77,73,66,64,62,57,88,68,58,30.21,30.14,22,10,34,0.00
2012-11-30,75,72,68,65,60,54,87,65,52,30.21,30.12,118,13,118,0.00
2012-12-1,76,74,72,63,61,58,72,64,56,30.19,30.11,26,11,34,0.00
2012-12-2,77,74,73,65,61,-100,72,66,61,30.22,30.13,22,14,32,0.00
2012-12-3,75,73,72,59,55,50,61,53,44,30.20,30.16,21,10,31,0.00
2012-12-4,76,73,69,64,59,53,77,62,50,30.22,30.14,23,12,32,0.00
2012-12-5,76,74,71,65,61,58,75,66,56,30.14,30.01,23,12,30,0.00
2012-12-6,78,73,71,67,62,-100,86,71,62,30.01,29.91,15,7,21,0.00
2012-12-7,79,75,73,68,66,65,80,74,66,29.98,29.91,13,6,26,0.00
2012-12-8,81,77,75,72,69,66,84,77,67,30.03,29.96,16,8,20,0.00
2012-12-9,82,78,75,74,72,71,88,84,75,30.09,29.99,7,4,18,0.00
2012-12-10,81,78,76,74,73,72,87,84,78,30.03,29.92,11,6,26,0.00
2012-12-11,82,78,70,76,73,68,94,87,80,30.05,29.93,26,6,44,0.00
2012-12-12,79,77,76,74,72,70,87,82,78,30.09,30.01,9,5,24,0.00
2012-12-13,78,73,65,72,68,63,93,85,75,30.09,30.02,18,12,27,0.00
2012-12-14,76,70,63,67,63,61,95,79,64,30.12,30.05,18,10,25,0.00
2012-12-15,76,74,72,65,63,61,76,68,61,30.10,30.02,23,11,28,0.00
2012-12-16,79,76,72,68,64,-100,80,71,61,30.05,29.96,18,7,26,0.00
2012-12-17,80,76,72,69,66,62,80,72,62,29.98,29.89,14,7,17,0.00
2012-12-18,83,76,71,69,66,61,89,72,52,30.01,29.92,15,10,22,0.00
2012-12-19,81,74,67,66,61,53,84,65,53,30.09,30.01,15,1,19,0.00
2012-12-20,80,76,73,66,63,60,78,66,52,30.09,29.97,17,8,21,0.00
2012-12-21,73,70,52,66,62,37,79,75,42,30.15,30.01,22,17,31,0.00
2012-12-22,62,54,47,42,30,20,73,40,26,30.24,30.15,24,17,37,0.00
2012-12-23,71,64,55,55,42,19,61,47,22,30.24,30.14,26,13,28,0.00
2012-12-24,75,72,67,59,55,50,62,57,50,30.14,30.00,11,6,21,0.00
2012-12-25,78,74,71,65,60,58,74,63,51,30.05,29.94,10,5,23,0.00
2012-12-26,81,75,65,70,66,61,90,75,55,29.98,29.84,32,14,44,0.00
2012-12-27,69,63,54,61,51,46,89,68,45,30.06,29.98,19,8,28,0.00
2012-12-28,76,72,65,70,64,53,85,77,66,30.07,29.97,13,7,24,0.00
2012-12-29,81,76,64,71,69,55,86,79,66,30.09,29.93,25,13,33,0.00
2012-12-30,68,61,50,57,52,44,87,73,63,30.27,30.09,21,13,31,0.00
2012-12-31,72,68,66,60,54,-100,70,63,60,30.29,30.19,23,15,33,0.00
2013-1-1,76,73,70,63,60,55,68,63,57,30.19,30.06,15,7,26,0.00